Flag for Switzerland Weather past 2 weeks in Lugano, Switzerland

Now
61 °F

Scattered showers. Partly cloudy.


Feels Like: 61 °F
Forecast: 49 / 76 °F
Wind: 5 mph from North

Location: Lugano Airport

Current Time: Aug 23, 2014 at 7:50:16 AM

Latest Report: Aug 23, 2014 at 6:50 AM


Visibility: N/A

Pressure: 29.92 "Hg

Humidity: 94%

Dew point: 59 °F

Location of LuganoLocation

Historic Weather in Lugano — Graph

°F

Lugano temperature yesterday

Maximum temperature yesterday: 75 °F (at 2:50 PM)
Minimum temperature yesterday: 59 °F (at 6:50 AM)
Average temperature yesterday: 67 °F

Past Weeks' High & Low Weather Summary

 TemperatureHumidityPressure
High82 °F (Aug 12, 2:50 PM)100% (Aug 9, 3:50 AM)30.12 "Hg (Aug 9, 3:50 AM)
Low50 °F (Aug 17, 6:50 AM)28% (Aug 14, 5:20 PM)29.68 "Hg (Aug 13, 11:20 AM)
Average67 °F81%29.94 "Hg
* Reported Aug 8 6:20 AM — Aug 23 6:50 AM, Lugano, Weather by CustomWeather, © 2014

Note: Actual official high and low records may vary slightly from our data, if they occured in-between our weather recording intervals... More about our weather records

Advertising

Lugano weather history for previous 24 hours

 ConditionsComfort  
Time TempWeatherWind HumidityBarometerVisibility
6:50 AM
Aug 23
61 °FScattered showers. Partly cloudy.5 mph94%29.92 "HgN/A
6:20 AM61 °FPassing clouds.2 mph100%29.92 "Hg5 mi
5:50 AM63 °FRain. Fog.1 mph94%29.92 "Hg2 mi
5:20 AM63 °FOvercast.2 mph94%29.95 "HgN/A
4:50 AM63 °FMostly cloudy.5 mph94%29.95 "HgN/A
4:20 AM63 °FThunderstorms. Partly cloudy.12 mph94%29.95 "Hg4 mi
3:50 AM63 °FThunderstorms. Mostly cloudy.5 mph94%29.95 "HgN/A
3:20 AM63 °FPartly cloudy.6 mph94%29.98 "HgN/A
2:50 AM63 °FSprinkles. Mostly cloudy.3 mph94%29.98 "HgN/A
2:20 AM63 °FPassing clouds.3 mph94%29.98 "HgN/A
1:50 AM63 °FOvercast.2 mph94%29.98 "HgN/A
1:20 AM63 °FPartly cloudy.2 mph94%29.98 "Hg4 mi
12:50 AM63 °FThundershowers. Partly cloudy.1 mph94%29.98 "HgN/A
12:20 AM63 °FLight rain. Passing clouds.1 mph94%29.98 "HgN/A
11:50 PM
Aug 22
63 °FPassing clouds.3 mph88%29.98 "HgN/A
11:20 PM63 °FPassing clouds.5 mph94%29.98 "HgN/A
10:50 PM63 °FClear.2 mph94%29.98 "Hg10 mi
10:20 PM63 °FMild.3 mph94%29.98 "HgN/A
9:50 PM64 °FPassing clouds.1 mph88%29.98 "HgN/A
9:20 PM66 °FPartly sunny.1 mph88%29.98 "HgN/A
8:50 PM68 °FScattered showers. Partly sunny.1 mph78%29.98 "HgN/A
8:20 PM68 °FScattered showers. Partly sunny.3 mph78%29.95 "HgN/A
7:50 PM70 °FScattered showers. Partly sunny.5 mph78%29.95 "HgN/A
7:20 PM72 °FScattered showers. Broken clouds.3 mph73%29.95 "HgN/A
6:50 PM72 °FScattered showers. Broken clouds.5 mph69%29.95 "HgN/A
6:20 PM73 °FScattered showers. Broken clouds.7 mph65%29.95 "HgN/A
5:50 PM73 °FBroken clouds.7 mph65%29.95 "HgN/A
5:20 PM73 °FBroken clouds.8 mph65%29.95 "HgN/A
4:50 PM73 °FScattered clouds.9 mph61%29.95 "HgN/A
4:20 PM75 °FScattered clouds.7 mph57%29.95 "HgN/A
3:50 PM75 °FScattered clouds.2 mph61%29.95 "HgN/A
3:20 PM75 °FScattered clouds.2 mph61%29.95 "HgN/A
2:50 PM75 °FScattered clouds.3 mph61%29.98 "HgN/A
2:20 PM73 °FScattered clouds.2 mph65%29.98 "HgN/A
1:50 PM73 °FScattered clouds.3 mph65%29.98 "HgN/A
1:20 PM72 °FScattered clouds.5 mph69%29.98 "HgN/A
12:50 PM72 °FScattered clouds.5 mph65%30.01 "HgN/A
12:20 PM70 °FScattered clouds.6 mph73%30.01 "HgN/A
11:50 AM66 °FScattered clouds.7 mph78%30.01 "HgN/A
11:20 AM68 °FScattered clouds.6 mph73%30.01 "HgN/A
10:50 AM66 °FScattered clouds.5 mph78%30.01 "HgN/A
10:20 AM66 °FBroken clouds.2 mph83%30.01 "Hg6 mi
9:50 AM66 °FBroken clouds.1 mph83%30.01 "Hg5 mi
9:20 AM63 °FScattered showers. Broken clouds.1 mph88%30.01 "Hg5 mi
8:50 AM63 °FRain showers. Broken clouds.3 mph88%29.98 "Hg4 mi
8:20 AM61 °FRain showers. Scattered clouds.5 mph94%29.98 "Hg4 mi
7:50 AM61 °FRain showers. Fog.1 mph94%29.98 "Hg3 mi
7:20 AM61 °FRain showers. Fog.1 mph94%29.98 "Hg2 mi
Weather by CustomWeather, © 2014

See weather overviewHow to use our weather pages